Temp
64 63 62 63 64 64 64 64 64 65 65 65 65 65 65 65 66 65 64 64 64 63 63 63 63 63 62 61 60 60 59 57 54 56 51 50 46 48 49 49 50 49 49
69 64 62 63 63 63 63 65 66 65 66 66 66 67 66 66 66 65 64 66 64 62 63 62 62 64 61 62 61 59 57 56 55 53 52 45 46 47 48 46 49 52 51
73 69 65 63 63 63 63 65 66 67 67 68 68 67 67 66 66 66 66 65 64 64 64 63 63 62 61 61 61 60 58 56 55 53 52 43 44 45 45 46 46 49 53
74 72 68 66 65 65 66 66 66 68 67 68 68 68 68 69 69 68 68 66 65 66 65 65 65 64 62 62 59 59 57 54 53 52 49 41 43 43 44 43 42 45 46
71 73 71 70 69 68 67 67 67 67 68 68 68 68 68 68 69 67 67 65 64 64 64 65 65 62 55 57 59 58 55 53 52 49 46 39 40 39 40 42 40 41 43
73 72 74 72 71 69 69 68 68 67 68 68 67 67 66 68 58 51 59 65 65 64 63 63 62 52 52 48 47 49 53 53 50 46 46 42 42 39 40 39 38 36 35
75 74 74 73 72 70 70 69 68 67 67 66 66 66 65 66 51 49 48 64 63 62 61 60 58 53 49 47 37 37 36 36 38 45 41 37 36 38 38 36 36 35 35
77 76 75 74 73 72 70 68 67 67 66 65 65 65 64 65 49 48 46 58 61 61 57 56 59 47 44 41 37 34 34 34 35 37 35 33 33 35 36 37 37 37 37
70 76 77 75 73 72 70 68 68 66 65 64 65 63 63 62 41 44 45 50 43 38 38 39 39 38 38 40 36 33 31 30 33 33 33 33 33 34 35 35 32 31 30
60 65 69 77 74 72 70 68 67 66 64 57 43 41 39 41 39 40 44 40 35 33 33 33 34 34 35 36 33 32 28 28 28 29 31 33 34 34 35 34 32 29 29
53 59 57 57 69 71 69 67 64 51 41 37 35 35 35 36 37 39 39 36 34 32 32 31 32 34 34 34 33 30 29 30 29 30 29 29 30 30 32 34 35 32 28
48 53 50 48 50 50 48 45 44 41 37 34 33 32 32 33 35 35 35 34 34 32 30 31 32 33 33 32 31 31 31 30 30 28 28 28 29 31 31 32 32 32 32
41 41 41 41 41 42 41 39 37 36 34 32 31 29 29 31 32 33 33 33 32 30 30 30 30 30 30 30 30 30 29 28 28 27 26 26 27 27 30 30 30 31 30
35 34 34 32 33 35 37 38 36 34 32 31 30 28 28 28 29 30 30 30 29 28 27 27 26 27 27 27 27 26 26 26 26 25 25 26 27 26 26 27 25 25 24
33 32 31 31 30 30 30 30 30 31 32 30 28 29 27 26 28 30 28 28 28 28 28 28 27 27 26 25 26 26 26 25 23 23 23 23 24 24 24 25 24 23 19
30 30 29 29 29 29 29 28 31 31 31 31 31 30 30 31 31 31 31 31 31 31 29 27 26 25 24 25 24 23 23 22 22 23 21 21 20 19 19 19 21 19 19
30 30 29 28 28 27 27 27 24 27 30 30 30 30 30 30 30 31 31 30 30 29 24 23 23 22 22 23 22 21 20 21 22 19 18 16 16 16 15 17 17 17 16
30 29 29 28 27 26 25 25 24 23 22 23 28 28 29 30 30 29 29 28 23 24 23 21 20 21 21 21 20 20 19 19 17 16 12 12 12 13 12 14 14 11 14
28 28 28 28 27 27 26 25 25 24 23 23 23 24 25 27 27 27 27 23 21 20 21 20 20 20 20 19 18 17 14 12 11 9 11 11 5 10 8 11 12 11 11
27 27 28 27 26 25 24 23 22 21 21 21 22 22 23 22 19 19 21 20 19 19 20 20 19 18 17 16 15 13 12 10 10 9 5 4 4 7 6 8 8 9 11
25 25 26 25 25 25 23 22 21 20 19 20 20 21 22 20 18 18 17 17 17 17 16 17 17 16 15 13 14 10 9 8 7 6 8 7 0 3 8 9 10 11 11
25 25 25 24 24 23 23 23 22 21 21 20 19 20 20 19 17 16 16 15 15 14 15 14 13 13 12 10 8 3 4 2 4 5 3 3 5 7 8 5 5 5 8
24 23 23 23 22 20 19 21 21 20 19 18 18 17 17 15 14 14 12 12 13 12 11 10 9 7 8 5 7 8 4 6 7 3 -1 1 5 5 2 2 6 6 6
22 22 21 20 19 19 19 18 18 18 18 17 16 15 15 14 13 11 10 8 7 10 9 5 8 6 4 2 3 4 8 4 4 4 -1 -3 -0 3 3 4 5 4 6
19 19 18 18 17 17 16 16 16 16 15 14 14 14 14 14 12 11 8 10 7 5 5 5 4 4 5 1 1 2 -1 -5 -6 -5 -4 -1 -1 -2 1 4 5 7 5
17 17 16 16 15 15 14 13 13 13 12 12 12 12 12 11 9 9 8 5 1 1 5 3 6 3 2 4 4 -1 -5 -4 -5 -1 -4 0 -1 0 3 3 2 4 5
MSLP
1005.96 1006.93 1007.40 1007.74 1008.15 1008.71 1009.00 1009.27 1009.81 1010.36 1010.75 1011.44 1011.95 1012.52 1012.85 1013.05 1013.35 1013.58 1013.86 1014.20 1014.37 1014.74 1015.10 1015.24 1015.51 1015.60 1015.77 1015.99 1016.02 1016.14 1016.52 1016.95 1017.06 1017.14 1017.46 1017.75 1018.09 1018.58 1018.83 1019.11 1019.24 1019.46 1019.34
1004.32 1005.61 1006.49 1007.13 1007.46 1007.66 1007.91 1008.09 1008.63 1009.02 1009.49 1009.90 1010.45 1010.86 1011.39 1011.71 1012.26 1012.44 1012.77 1012.92 1013.33 1013.63 1013.92 1014.29 1014.47 1014.60 1014.72 1014.92 1015.13 1015.45 1015.74 1015.86 1016.29 1016.63 1017.06 1017.72 1017.55 1017.87 1018.11 1018.54 1018.80 1018.82 1018.89
1002.83 1003.72 1004.93 1005.56 1005.95 1006.10 1006.48 1006.90 1007.43 1007.86 1008.15 1008.66 1009.15 1009.44 1009.68 1010.18 1010.69 1011.01 1011.42 1011.82 1012.08 1012.31 1012.55 1012.90 1013.07 1013.37 1013.56 1013.70 1013.86 1014.25 1014.74 1015.04 1015.52 1015.95 1016.38 1017.17 1017.27 1017.54 1018.10 1018.16 1018.55 1018.48 1018.36
1002.05 1002.38 1003.12 1003.89 1004.29 1004.50 1005.02 1005.72 1006.13 1006.32 1006.71 1007.02 1007.31 1007.75 1008.21 1008.60 1008.91 1009.43 1009.83 1010.10 1010.38 1010.67 1011.03 1011.33 1011.57 1011.85 1012.07 1012.44 1012.93 1013.22 1013.77 1014.17 1014.79 1015.20 1015.51 1016.35 1016.74 1017.03 1017.26 1017.43 1018.12 1018.04 1018.32
1000.90 1001.51 1001.44 1002.23 1003.11 1003.66 1004.06 1004.25 1004.60 1005.19 1005.41 1005.83 1006.17 1006.43 1006.75 1007.15 1007.49 1007.90 1008.30 1008.84 1009.34 1009.68 1009.84 1010.04 1010.24 1010.44 1010.74 1011.20 1011.74 1012.22 1012.96 1013.35 1014.02 1014.36 1014.89 1015.57 1015.91 1016.36 1016.20 1016.74 1017.36 1017.39 1018.17
999.61 1000.02 1000.38 1001.27 1001.82 1002.24 1002.67 1003.07 1003.63 1003.86 1004.19 1004.69 1004.85 1005.20 1005.65 1005.78 1005.92 1006.46 1007.15 1007.70 1008.13 1008.55 1008.71 1008.84 1009.11 1009.44 1009.81 1010.27 1010.78 1011.15 1011.55 1012.06 1012.79 1013.31 1013.55 1014.45 1014.88 1015.38 1015.80 1016.38 1016.55 1017.75 1017.95
998.36 998.80 999.34 999.79 1000.32 1000.78 1001.41 1002.12 1002.30 1002.55 1003.17 1003.38 1003.78 1004.23 1004.46 1004.73 1004.94 1005.56 1006.26 1006.91 1007.24 1007.40 1007.70 1008.04 1008.46 1008.89 1009.48 1010.31 1011.10 1011.63 1012.03 1012.32 1012.50 1012.85 1013.86 1014.81 1015.12 1015.32 1015.22 1016.29 1017.00 1017.83 1018.38
998.29 997.80 998.04 998.52 998.84 999.29 1000.06 1000.59 1000.97 1001.39 1001.88 1002.43 1002.89 1003.36 1003.72 1003.73 1004.25 1004.63 1005.42 1006.12 1006.42 1006.77 1007.25 1007.53 1007.86 1008.78 1009.37 1010.18 1011.38 1012.31 1013.14 1013.62 1013.39 1013.31 1014.06 1015.18 1015.61 1016.02 1015.92 1016.79 1017.47 1017.97 1018.43
999.23 997.81 997.05 997.11 997.58 998.25 998.81 999.26 999.86 1000.74 1001.15 1001.54 1002.31 1002.97 1003.32 1003.50 1003.81 1004.00 1005.06 1005.95 1006.55 1007.61 1008.38 1008.59 1008.92 1009.43 1009.97 1010.41 1011.29 1012.69 1014.07 1014.85 1015.43 1015.66 1015.98 1016.20 1016.14 1016.90 1016.64 1017.15 1017.69 1018.59 1018.99
1001.12 999.66 998.45 996.57 996.27 996.76 997.42 998.25 999.08 1000.05 1000.84 1001.50 1002.71 1003.39 1003.98 1004.32 1004.46 1004.20 1004.65 1005.89 1007.23 1008.62 1009.58 1009.97 1010.03 1010.29 1010.83 1011.46 1012.19 1013.24 1014.12 1015.52 1015.50 1015.94 1017.30 1017.29 1017.92 1017.94 1017.83 1018.01 1018.23 1018.56 1018.90
1002.69 1001.08 999.90 998.66 996.56 995.83 996.58 997.34 998.38 999.85 1001.35 1002.73 1003.60 1004.48 1005.14 1005.43 1005.88 1005.74 1005.65 1006.53 1007.69 1008.83 1009.93 1010.96 1011.54 1011.40 1011.77 1012.35 1012.57 1013.73 1015.26 1016.23 1016.69 1017.13 1016.47 1017.52 1017.79 1018.71 1018.82 1018.95 1019.05 1019.12 1019.07
1003.84 1002.52 1001.61 1000.63 999.70 998.39 997.91 998.59 999.74 1001.10 1002.75 1004.05 1005.11 1006.03 1006.18 1006.21 1006.54 1006.81 1007.14 1007.55 1008.38 1009.17 1010.07 1011.29 1012.52 1012.34 1012.81 1013.48 1014.66 1014.82 1016.19 1016.92 1016.98 1018.12 1018.21 1018.53 1018.67 1018.34 1019.16 1019.26 1019.65 1019.45 1019.38
1004.82 1004.35 1003.75 1002.79 1001.85 1001.40 1000.26 1000.41 1001.01 1002.03 1003.38 1004.75 1005.71 1006.68 1007.56 1008.53 1007.59 1008.49 1008.48 1008.94 1009.89 1010.21 1010.95 1012.25 1012.56 1013.85 1014.22 1014.74 1015.59 1016.44 1017.00 1017.53 1017.86 1018.33 1018.61 1019.15 1019.39 1019.56 1019.82 1019.90 1020.03 1019.82 1019.69
1005.97 1005.96 1005.65 1005.22 1004.39 1003.62 1003.04 1002.59 1002.68 1002.96 1004.21 1005.39 1006.25 1007.26 1007.95 1008.56 1009.45 1009.85 1010.77 1010.71 1010.73 1011.11 1011.17 1013.69 1014.06 1015.08 1015.74 1016.40 1016.77 1017.00 1017.70 1018.28 1018.83 1019.23 1019.65 1019.91 1019.98 1020.12 1020.25 1020.40 1020.38 1020.04 1020.02
1006.90 1007.32 1007.31 1007.05 1006.80 1006.32 1005.78 1005.32 1004.50 1005.60 1005.63 1006.16 1007.08 1008.05 1008.17 1009.67 1010.66 1009.60 1011.25 1012.36 1011.81 1012.99 1013.17 1013.85 1013.90 1015.59 1016.65 1017.04 1017.86 1017.91 1018.44 1018.76 1019.59 1020.17 1020.28 1020.61 1020.71 1020.65 1020.74 1020.71 1020.45 1020.36 1020.46
1007.94 1008.54 1008.51 1008.80 1008.57 1009.18 1008.18 1007.57 1008.29 1007.11 1007.55 1009.28 1009.23 1009.11 1009.96 1009.76 1012.84 1010.61 1011.44 1012.91 1012.81 1013.56 1014.38 1013.96 1015.01 1016.00 1017.00 1017.77 1018.30 1018.79 1019.48 1019.75 1020.15 1020.56 1021.29 1021.52 1021.51 1021.53 1021.34 1021.11 1020.93 1020.82 1020.68
1009.32 1010.14 1009.67 1009.38 1010.22 1010.81 1011.44 1010.43 1009.52 1010.31 1009.76 1009.25 1014.00 1011.25 1012.68 1011.77 1012.32 1013.59 1012.99 1012.81 1014.70 1014.73 1014.60 1015.66 1016.52 1017.23 1018.10 1018.57 1019.15 1019.65 1020.66 1021.19 1021.17 1021.38 1021.86 1022.10 1022.07 1022.01 1021.87 1021.68 1021.46 1021.31 1021.06
1010.22 1011.52 1011.57 1011.20 1010.49 1011.64 1012.86 1013.00 1012.92 1011.82 1012.23 1013.90 1012.75 1013.53 1013.90 1013.53 1014.52 1013.59 1014.42 1014.58 1015.52 1015.72 1015.83 1016.99 1017.91 1018.61 1019.09 1019.65 1020.02 1020.70 1021.30 1021.69 1022.09 1022.28 1022.36 1022.53 1022.56 1022.55 1022.56 1022.38 1022.17 1021.94 1021.66
1012.40 1012.36 1013.12 1012.19 1012.82 1013.21 1013.51 1013.99 1014.10 1014.13 1014.05 1015.37 1015.91 1014.89 1016.15 1014.51 1016.02 1016.52 1016.16 1016.57 1016.80 1017.17 1017.67 1018.48 1019.35 1019.67 1019.96 1020.59 1021.10 1021.51 1022.00 1022.50 1022.67 1022.86 1023.12 1023.17 1023.14 1023.04 1023.02 1022.76 1022.55 1022.26 1021.98
1014.27 1014.14 1014.50 1014.78 1014.87 1014.92 1014.32 1016.32 1016.08 1015.13 1016.51 1016.89 1016.82 1017.42 1017.09 1016.92 1017.22 1018.52 1018.41 1017.81 1018.36 1018.58 1019.03 1019.85 1020.26 1020.63 1020.97 1021.46 1022.04 1022.44 1022.46 1023.18 1023.37 1023.53 1023.63 1023.65 1023.59 1023.39 1023.42 1023.16 1022.81 1022.36 1022.19
1016.13 1015.93 1016.08 1016.16 1016.15 1016.54 1017.37 1017.35 1016.82 1017.17 1018.11 1018.50 1018.39 1018.30 1018.23 1018.32 1019.21 1019.84 1019.33 1019.35 1019.89 1020.43 1021.07 1021.20 1021.27 1021.65 1022.22 1022.68 1022.84 1023.15 1023.39 1023.72 1023.91 1024.15 1024.21 1024.18 1024.17 1023.99 1023.45 1023.18 1022.99 1022.58 1022.33
1017.57 1017.41 1017.54 1017.61 1017.69 1017.58 1017.61 1017.59 1017.95 1018.53 1018.51 1018.79 1018.79 1019.15 1019.91 1020.14 1020.11 1020.38 1020.68 1021.06 1021.53 1022.07 1022.55 1022.68 1022.77 1023.04 1023.34 1023.74 1023.89 1023.83 1024.13 1024.18 1024.43 1024.65 1024.67 1024.76 1024.53 1024.20 1023.80 1023.58 1023.37 1023.17 1022.62
1018.95 1018.83 1018.84 1018.79 1018.91 1018.97 1019.14 1019.32 1019.60 1019.58 1019.68 1020.11 1020.14 1020.43 1020.53 1020.67 1021.31 1021.86 1022.40 1022.73 1022.84 1023.53 1023.79 1023.88 1023.89 1024.25 1024.37 1024.36 1024.32 1024.44 1024.62 1024.72 1024.87 1025.17 1025.27 1025.23 1025.05 1024.48 1024.14 1023.81 1023.52 1023.21 1022.80
1020.30 1020.05 1019.98 1020.11 1020.06 1019.98 1020.24 1020.37 1020.49 1020.63 1020.83 1020.91 1021.05 1021.39 1021.67 1022.27 1022.45 1022.86 1023.75 1024.23 1024.22 1024.27 1024.36 1024.36 1024.46 1024.97 1024.96 1025.12 1025.08 1024.89 1024.95 1025.34 1025.46 1025.52 1025.84 1025.97 1025.46 1024.87 1024.41 1024.06 1023.75 1023.24 1022.77
1021.43 1021.32 1021.23 1021.31 1021.29 1021.24 1021.52 1021.70 1021.75 1021.80 1022.04 1022.22 1022.50 1022.78 1022.86 1023.16 1023.49 1023.71 1024.31 1024.65 1024.93 1024.86 1024.82 1024.81 1025.10 1025.01 1025.34 1025.13 1025.23 1025.58 1025.62 1025.79 1025.89 1025.91 1025.78 1025.56 1025.34 1024.97 1024.41 1024.06 1023.59 1022.94 1022.52
1022.66 1022.58 1022.42 1022.38 1022.45 1022.54 1022.57 1022.64 1022.84 1022.87 1022.99 1023.34 1023.61 1023.68 1023.70 1023.97 1024.49 1024.48 1024.82 1025.45 1025.81 1025.77 1025.48 1025.22 1025.21 1025.35 1025.25 1025.23 1025.64 1025.79 1025.65 1025.55 1025.59 1025.52 1025.49 1025.29 1025.19 1024.88 1024.31 1023.88 1023.48 1022.98 1022.38
Wind_Speed
19 18 18 18 19 17 18 17 19 19 19 19 18 18 16 14 14 13 13 12 13 12 12 12 14 13 10 8 7 7 9 8 11 8 4 4 6 7 6 7 7 8 6
17 19 19 18 19 18 19 18 18 20 18 20 21 19 20 20 18 17 17 16 15 14 14 14 15 11 13 13 9 10 9 10 9 16 6 5 5 7 8 8 7 8 7
15 18 19 20 21 22 22 21 19 19 18 19 20 21 20 20 19 20 19 18 17 17 18 17 17 15 15 12 12 11 11 9 10 10 8 2 2 3 4 5 7 7 6
15 15 19 21 22 22 20 21 21 21 21 21 21 21 22 20 20 21 20 19 19 18 18 18 17 17 17 15 12 13 12 9 10 10 7 3 3 3 5 7 5 4 5
17 17 19 17 18 18 20 20 20 20 19 20 19 20 19 18 17 21 20 19 19 19 18 18 18 17 16 15 11 13 12 10 10 10 7 4 4 4 10 4 3 4 3
17 19 17 16 17 19 18 18 18 20 21 19 21 21 20 17 21 20 18 16 18 17 17 16 13 12 14 17 18 16 16 16 15 11 10 8 9 4 4 5 5 2 2
13 17 17 16 18 19 18 18 19 20 18 21 20 19 20 20 17 18 19 16 15 14 13 11 9 6 7 6 13 15 14 16 7 5 4 2 4 1 6 4 3 3 2
12 14 16 17 18 18 17 20 20 18 18 17 17 18 17 16 14 18 17 14 14 14 7 7 11 7 7 11 10 11 10 9 7 7 10 8 8 7 7 5 4 3 2
19 14 14 16 17 17 17 19 17 14 16 16 14 14 16 12 1 12 13 5 7 8 8 8 7 7 10 16 12 13 11 12 15 21 19 17 18 15 10 4 3 3 1
21 20 22 14 17 17 17 16 14 11 12 5 8 8 10 7 6 9 10 8 9 8 9 11 17 14 17 14 12 11 13 8 9 11 6 9 10 9 11 6 3 2 1
21 20 17 18 13 14 13 10 10 7 10 10 11 9 11 10 10 11 12 8 9 9 9 9 8 21 23 22 21 12 11 9 10 6 9 6 6 2 3 2 1 2 2
17 17 13 14 13 9 11 10 12 12 11 9 10 9 8 9 12 14 16 17 15 12 12 11 12 25 27 27 17 24 17 7 7 5 5 5 3 4 5 5 5 5 3
13 13 13 11 10 11 8 9 9 10 9 8 8 9 9 7 11 21 22 23 21 15 13 20 29 25 26 20 23 19 11 7 5 5 5 5 5 5 4 4 4 5 5
11 12 12 13 13 11 8 7 7 8 9 8 9 10 9 9 8 10 11 14 21 15 17 13 15 15 14 11 10 11 7 6 6 5 5 4 3 4 3 2 2 3 3
12 11 12 11 13 13 14 10 12 13 9 10 10 7 11 11 9 17 15 8 9 12 11 8 9 9 8 7 6 7 5 8 8 5 5 4 4 4 4 4 4 4 4
13 10 11 10 10 10 11 16 31 31 33 28 24 16 13 24 22 26 26 19 15 10 8 10 10 9 8 8 7 8 7 8 5 5 4 4 4 3 4 4 4 4 6
12 10 9 12 10 10 10 12 16 23 33 35 24 29 25 25 25 21 24 26 19 15 11 11 9 8 7 8 7 8 7 5 6 4 4 2 2 3 4 4 5 6 6
16 17 10 10 12 10 10 9 9 11 15 12 23 22 23 22 19 23 20 17 12 13 11 10 9 8 8 7 7 6 5 4 4 3 3 2 3 4 3 5 5 4 6
13 12 10 11 10 10 8 9 8 11 11 9 7 13 14 27 26 24 22 10 10 10 9 9 8 7 7 7 6 5 3 3 3 3 3 4 3 2 2 4 4 6 7
13 18 12 8 9 9 11 8 8 12 10 9 8 7 7 11 11 9 9 10 10 9 8 8 7 7 7 6 5 5 5 4 4 3 2 2 3 3 2 3 3 5 6
9 10 12 9 9 8 7 8 8 9 8 8 9 10 14 10 9 8 9 10 9 9 8 8 7 7 6 5 6 4 4 3 3 3 3 4 3 3 3 4 4 6 7
7 9 9 9 9 9 9 9 8 8 8 8 9 11 13 8 9 9 9 9 8 8 7 7 6 7 6 5 4 3 3 3 3 4 4 3 4 4 4 4 4 4 6
9 10 9 8 9 10 9 9 8 8 9 8 8 8 8 8 9 9 8 7 7 5 5 5 5 4 5 3 3 4 3 4 5 4 3 4 5 4 3 3 5 6 6
9 9 9 8 8 9 8 8 8 10 8 8 8 7 7 6 7 8 5 4 4 5 4 3 4 5 3 3 3 3 5 6 6 6 6 4 5 6 5 6 6 7 8
9 8 9 8 8 8 7 8 8 8 8 7 7 6 6 7 6 6 4 5 5 5 4 3 2 4 6 4 4 9 7 7 3 3 2 4 5 7 6 6 7 7 7
9 9 8 8 8 8 7 7 8 7 7 7 7 6 6 7 6 5 5 6 3 3 3 3 5 7 5 4 7 5 3 3 4 5 3 4 5 6 6 7 8 7 9
Wind_Direction
185 195 199 202 203 198 204 203 203 207 205 209 209 215 223 221 216 215 219 217 215 218 219 219 225 227 229 232 227 227 223 204 236 247 213 172 178 199 205 209 207 215 204
185 188 200 201 207 206 210 209 207 207 207 208 211 212 213 216 218 219 220 220 218 218 220 223 229 230 231 230 229 226 221 210 224 245 226 204 194 198 203 193 207 212 208
197 190 193 201 202 208 211 210 208 215 210 212 213 216 217 215 216 219 219 221 224 225 226 229 232 229 236 234 230 223 217 222 227 236 236 177 188 167 185 190 208 222 205
215 205 200 202 207 211 209 209 213 211 213 213 213 215 219 221 216 218 221 225 228 230 232 233 233 231 234 235 227 223 224 218 223 232 219 174 177 178 184 179 197 193 227
209 217 220 208 211 211 213 214 212 215 216 217 218 219 221 219 223 226 224 225 228 232 235 235 233 229 226 226 216 217 216 219 223 224 211 172 184 169 191 172 194 144 208
203 218 220 217 211 217 217 214 213 215 217 217 219 219 220 223 223 215 218 224 228 232 237 239 234 223 226 220 213 210 202 213 217 207 220 212 201 149 140 153 136 143 185
209 215 220 219 217 217 216 216 218 219 216 219 223 222 225 227 217 209 210 227 233 233 233 230 224 220 194 131 88 88 70 64 50 199 168 78 75 40 118 112 81 91 183
282 228 219 220 225 222 212 216 220 218 217 218 221 221 225 229 221 212 205 215 227 230 236 236 228 171 158 135 113 92 70 48 48 99 105 93 87 86 81 102 105 87 358
323 301 241 222 222 227 221 219 222 219 219 218 221 221 221 220 3 202 179 159 91 67 56 47 66 75 106 127 117 108 90 72 61 70 75 83 86 69 68 82 92 101 268
341 332 323 268 218 219 220 221 215 215 221 184 78 53 47 63 31 140 133 119 107 96 72 68 76 90 84 90 99 108 103 85 101 97 60 66 47 56 64 55 64 98 112
326 325 344 343 299 214 212 206 194 115 106 96 91 74 67 58 51 67 98 108 118 108 97 85 81 96 95 91 95 94 97 100 89 75 108 116 124 130 98 83 70 57 56
326 327 342 351 353 14 79 82 89 98 94 85 82 61 54 73 69 83 89 97 109 106 104 100 91 92 91 88 81 101 98 97 93 78 72 66 63 74 35 32 9 5 1
354 354 354 2 18 7 53 83 93 99 104 104 99 92 80 56 66 81 89 94 95 98 94 98 93 87 85 82 83 74 74 68 75 79 66 57 49 39 10 1 342 345 1
25 15 14 13 10 24 32 43 71 95 101 102 107 99 98 83 77 87 75 86 95 89 87 86 88 89 84 83 77 72 69 66 64 62 59 55 41 29 20 360 321 335 323
48 34 28 29 32 42 43 40 65 46 64 100 92 95 100 81 83 101 97 92 97 87 110 108 99 89 84 87 85 82 70 68 63 54 48 34 25 15 0 354 346 340 312
56 46 47 40 44 34 57 73 63 76 74 69 79 88 87 99 92 96 102 103 99 112 93 86 83 79 76 71 72 77 72 69 57 53 42 22 16 1 357 341 327 320 313
57 51 61 73 52 57 42 59 77 67 72 75 58 77 76 89 91 81 83 82 79 87 78 71 75 76 77 74 70 64 63 43 49 53 36 3 6 352 350 346 338 332 332
60 47 45 41 71 64 50 48 54 61 75 52 73 73 69 74 83 85 82 86 75 65 70 73 70 69 71 70 64 63 55 45 44 24 19 15 19 4 354 340 337 334 332
48 53 38 57 54 66 82 62 73 72 70 81 70 65 53 73 66 66 67 68 76 77 75 75 69 66 64 65 58 56 50 46 38 29 25 18 359 358 342 339 332 332 326
45 46 53 56 61 60 55 59 61 65 61 52 63 69 65 63 65 58 55 62 60 58 67 73 70 63 57 51 52 41 44 30 27 17 10 8 3 358 337 325 326 332 328
42 45 47 51 54 69 84 79 72 72 68 69 62 60 62 65 69 64 59 55 55 50 46 50 57 55 53 49 46 39 43 28 21 11 14 11 357 331 325 331 334 332 326
50 55 55 55 53 55 58 60 66 79 78 74 68 59 56 67 68 60 57 57 58 50 41 40 49 54 51 43 33 34 30 24 27 20 11 350 339 329 336 339 331 320 314
44 49 46 58 61 59 54 48 59 62 64 63 66 65 60 55 55 62 52 41 51 61 47 35 51 43 45 26 22 28 21 28 31 30 7 340 324 332 336 318 320 325 319
43 47 58 59 52 51 51 52 58 52 58 61 62 61 63 65 75 73 68 51 28 52 60 34 58 69 49 36 30 356 29 41 23 18 16 333 314 314 324 327 316 299 295
40 43 48 48 51 57 58 52 51 55 53 50 51 49 49 58 57 66 60 62 45 20 6 34 50 45 57 23 3 65 50 43 27 322 287 307 314 311 293 290 291 302 327
44 42 41 42 40 40 45 49 43 43 45 44 40 37 42 50 38 28 63 51 22 317 8 19 37 24 3 37 59 59 5 330 322 340 321 303 291 289 299 314 316 308 304